TimeCST,TemperatureF,Dew PointF,Humidity,Sea Level PressureIn,VisibilityMPH,Wind Direction,Wind SpeedMPH,Gust SpeedMPH,PrecipitationIn,Events,Conditions,WindDirDegrees,DateUTC
12:15 AM,18.5,14.7,85,30.40,10.0,West,3.5,-,N/A,,Clear,260,2013-01-18 06:15:00
12:35 AM,18.5,14.7,85,30.41,10.0,West,3.5,-,N/A,,Clear,270,2013-01-18 06:35:00
12:55 AM,19.2,15.4,85,30.42,10.0,West,3.5,-,N/A,,Clear,280,2013-01-18 06:55:00
1:15 AM,15.8,11.8,84,30.42,10.0,SW,3.5,-,N/A,,Clear,220,2013-01-18 07:15:00
1:35 AM,17.6,14.2,86,30.42,10.0,SW,3.5,-,N/A,,Scattered Clouds,230,2013-01-18 07:35:00
1:55 AM,17.1,13.6,86,30.42,10.0,SSW,4.6,-,N/A,,Scattered Clouds,200,2013-01-18 07:55:00
2:15 AM,18.1,14.9,87,30.42,10.0,SW,3.5,-,N/A,,Clear,220,2013-01-18 08:15:00
2:35 AM,20.1,15.8,83,30.42,10.0,SW,3.5,-,N/A,,Mostly Cloudy,230,2013-01-18 08:35:00
2:55 AM,20.1,15.8,83,30.42,10.0,SW,3.5,-,N/A,,Overcast,230,2013-01-18 08:55:00
3:15 AM,20.3,16.0,83,30.42,10.0,Calm,Calm,-,N/A,,Mostly Cloudy,0,2013-01-18 09:15:00
3:35 AM,20.8,16.5,83,30.42,10.0,Calm,Calm,-,N/A,,Scattered Clouds,0,2013-01-18 09:35:00
3:55 AM,20.3,16.5,85,30.41,10.0,Calm,Calm,-,N/A,,Mostly Cloudy,0,2013-01-18 09:55:00
4:15 AM,18.5,15.8,89,30.40,10.0,SSE,3.5,-,N/A,,Mostly Cloudy,150,2013-01-18 10:15:00
4:35 AM,17.4,14.7,89,30.39,10.0,South,4.6,-,N/A,,Clear,170,2013-01-18 10:35:00
4:55 AM,17.1,15.3,93,30.39,10.0,South,4.6,-,N/A,,Clear,170,2013-01-18 10:55:00
5:15 AM,17.6,15.3,91,30.39,10.0,South,4.6,-,N/A,,Clear,180,2013-01-18 11:15:00
5:35 AM,18.5,15.8,89,30.38,10.0,South,3.5,-,N/A,,Clear,190,2013-01-18 11:35:00
5:55 AM,19.4,15.8,86,30.39,10.0,South,4.6,-,N/A,,Clear,190,2013-01-18 11:55:00
6:15 AM,19.9,16.7,87,30.39,10.0,South,3.5,-,N/A,,Clear,190,2013-01-18 12:15:00
6:35 AM,20.1,16.7,87,30.38,10.0,South,3.5,-,N/A,,Clear,190,2013-01-18 12:35:00
6:55 AM,19.9,16.7,87,30.36,10.0,ESE,5.8,-,N/A,,Clear,120,2013-01-18 12:55:00
7:15 AM,20.7,17.4,87,30.36,10.0,SSE,4.6,-,N/A,,Clear,160,2013-01-18 13:15:00
7:35 AM,22.3,19.0,87,30.35,10.0,South,6.9,-,N/A,,Clear,180,2013-01-18 13:35:00
7:55 AM,24.1,20.1,85,30.34,10.0,South,8.1,-,N/A,,Clear,170,2013-01-18 13:55:00
8:15 AM,25.9,21.0,82,30.34,10.0,South,9.2,-,N/A,,Scattered Clouds,180,2013-01-18 14:15:00
8:35 AM,27.5,21.7,79,30.34,10.0,South,12.7,-,N/A,,Overcast,190,2013-01-18 14:35:00
8:55 AM,28.6,22.8,79,30.34,10.0,South,11.5,-,N/A,,Mostly Cloudy,190,2013-01-18 14:55:00
9:15 AM,30.7,23.4,74,30.33,10.0,SSW,15.0,18.4,N/A,,Scattered Clouds,200,2013-01-18 15:15:00
9:35 AM,31.8,23.9,73,30.32,10.0,SSW,16.1,-,N/A,,Clear,210,2013-01-18 15:35:00
9:55 AM,34.0,25.2,70,30.31,10.0,SSW,23.0,26.5,N/A,,Clear,210,2013-01-18 15:55:00
10:15 AM,35.6,24.3,63,30.30,10.0,SSW,27.6,35.7,N/A,,Clear,200,2013-01-18 16:15:00
10:35 AM,35.8,24.6,64,30.28,10.0,SSW,20.7,29.9,N/A,,Clear,200,2013-01-18 16:35:00
10:55 AM,36.5,24.4,62,30.26,10.0,SSW,23.0,29.9,N/A,,Clear,200,2013-01-18 16:55:00
11:15 AM,37.4,25.2,61,30.24,10.0,South,23.0,34.5,N/A,,Clear,190,2013-01-18 17:15:00
11:35 AM,38.1,25.5,61,30.23,10.0,SSW,20.7,32.2,N/A,,Clear,200,2013-01-18 17:35:00
11:55 AM,40.1,25.9,57,30.20,10.0,SSW,24.2,32.2,N/A,,Clear,200,2013-01-18 17:55:00
12:15 PM,40.5,26.2,57,30.18,10.0,SSW,26.5,35.7,N/A,,Clear,200,2013-01-18 18:15:00
12:35 PM,40.6,26.8,58,30.16,10.0,South,26.5,40.3,N/A,,Clear,190,2013-01-18 18:35:00
12:55 PM,41.2,27.3,58,30.14,10.0,SSW,26.5,34.5,N/A,,Clear,200,2013-01-18 18:55:00
1:15 PM,41.9,27.9,58,30.13,10.0,SSW,27.6,35.7,N/A,,Clear,200,2013-01-18 19:15:00
1:35 PM,42.1,28.2,58,30.11,10.0,SSW,27.6,36.8,N/A,,Clear,210,2013-01-18 19:35:00
1:55 PM,42.6,28.9,58,30.10,10.0,SSW,25.3,33.4,N/A,,Clear,200,2013-01-18 19:55:00
2:15 PM,42.8,29.3,59,30.09,10.0,SSW,24.2,34.5,N/A,,Clear,200,2013-01-18 20:15:00
2:35 PM,43.2,29.8,59,30.07,10.0,SSW,28.8,34.5,N/A,,Clear,200,2013-01-18 20:35:00
2:55 PM,43.0,29.8,60,30.06,10.0,South,19.6,27.6,N/A,,Clear,190,2013-01-18 20:55:00
3:15 PM,43.2,30.2,60,30.03,10.0,South,24.2,29.9,N/A,,Clear,190,2013-01-18 21:15:00
3:35 PM,43.0,30.2,61,30.02,10.0,South,24.2,32.2,N/A,,Clear,190,2013-01-18 21:35:00
3:55 PM,42.8,30.0,61,30.01,10.0,South,24.2,33.4,N/A,,Clear,190,2013-01-18 21:55:00
4:15 PM,42.1,29.8,62,30.00,10.0,SSW,23.0,38.0,N/A,,Clear,200,2013-01-18 22:15:00
4:35 PM,41.2,29.8,64,30.00,10.0,South,21.9,29.9,N/A,,Clear,190,2013-01-18 22:35:00
4:55 PM,40.5,30.0,66,30.00,10.0,South,18.4,34.5,N/A,,Clear,190,2013-01-18 22:55:00
5:15 PM,39.7,30.0,68,30.01,10.0,SSW,16.1,21.9,N/A,,Clear,200,2013-01-18 23:15:00
5:35 PM,39.6,29.8,68,30.01,10.0,SSW,20.7,25.3,N/A,,Clear,200,2013-01-18 23:35:00
5:55 PM,39.2,29.7,69,30.00,10.0,SSW,19.6,27.6,N/A,,Clear,210,2013-01-18 23:55:00
6:15 PM,38.7,29.7,70,30.00,10.0,SSW,20.7,26.5,N/A,,Clear,210,2013-01-19 00:15:00
6:35 PM,38.5,29.8,71,30.01,10.0,SSW,18.4,-,N/A,,Clear,210,2013-01-19 00:35:00
6:55 PM,38.5,29.8,71,30.00,10.0,SSW,16.1,24.2,N/A,,Clear,210,2013-01-19 00:55:00
7:15 PM,38.3,29.8,72,30.00,10.0,SSW,17.3,25.3,N/A,,Clear,210,2013-01-19 01:15:00
7:35 PM,37.4,30.2,75,29.99,10.0,SSW,17.3,24.2,N/A,,Clear,210,2013-01-19 01:35:00
7:55 PM,38.3,29.7,71,29.99,10.0,SW,15.0,24.2,N/A,,Clear,220,2013-01-19 01:55:00
8:15 PM,38.5,29.7,71,29.99,10.0,SW,16.1,21.9,N/A,,Clear,220,2013-01-19 02:15:00
8:35 PM,39.2,30.2,70,29.98,10.0,SSW,18.4,27.6,N/A,,Clear,210,2013-01-19 02:35:00
8:55 PM,38.3,29.7,71,29.98,10.0,SW,20.7,25.3,N/A,,Clear,220,2013-01-19 02:55:00
9:15 PM,38.3,29.7,71,29.97,10.0,SSW,21.9,27.6,N/A,,Clear,210,2013-01-19 03:15:00
9:35 PM,38.5,29.7,71,29.96,10.0,SW,24.2,28.8,N/A,,Clear,220,2013-01-19 03:35:00
9:55 PM,38.3,29.7,71,29.96,10.0,SSW,21.9,28.8,N/A,,Clear,210,2013-01-19 03:55:00
10:15 PM,38.1,29.5,71,29.95,10.0,SSW,20.7,29.9,N/A,,Clear,210,2013-01-19 04:15:00
10:35 PM,38.5,29.3,70,29.95,10.0,SW,19.6,27.6,N/A,,Clear,220,2013-01-19 04:35:00
10:55 PM,38.8,29.3,69,29.94,10.0,SSW,21.9,26.5,N/A,,Clear,210,2013-01-19 04:55:00
11:15 PM,38.8,29.3,69,29.94,10.0,SW,18.4,-,N/A,,Clear,220,2013-01-19 05:15:00
11:35 PM,39.0,29.3,68,29.94,10.0,SW,19.6,24.2,N/A,,Clear,220,2013-01-19 05:35:00
11:55 PM,39.2,29.3,68,29.93,10.0,SW,20.7,24.2,N/A,,Clear,220,2013-01-19 05:55:00